Regional Weather Roundup
Issued by NWS

Home | Current Version | Previous Version | Text Only | Print | Product List | Glossary Off
Versions: 1 2 3 4 5 6 7 8 9 10 11 12 13 14 15 16 17 18 19 20 21 22 23 24 25 26 27 28 29 30 31 32 33 34 35 36 37 38 39 40 41 42 43 44 45 46 47 48 49 50

000
ASUS43 KOAX 141702
RWRNE

WEATHER ROUNDUP FOR NEBRASKA
NATIONAL WEATHER SERVICE OMAHA NE
1100 AM CST THU DEC 14 2017

NOTES: SATELLITE DATA IS BEING USED TO AUGMENT CLOUD COVER ABOVE
       12000 FEET.
       "FAIR" INDICATES FEW OR NO CLOUDS BELOW 12,000 FEET WITH NO
       SIGNIFICANT WEATHER AND/OR OBSTRUCTIONS TO VISIBILITY.


NEZ001>004-019>022-054>056-141800-
NEBRASKA PANHANDLE

CITY           SKY/WX    TMP DP  RH WIND       PRES   REMARKS
SCOTTSBLUFF    MOSUNNY   37  21  52 N35G44    30.21R WCI  24
ALLIANCE       CLOUDY    35  21  56 NW25G32   30.16R WCI  23
CHADRON        CLOUDY    36  24  62 NW22G32   30.19R WCI  25
GORDON         FLURRIES  33  27  77 N22G28    30.15R WCI  21
KIMBALL        PTSUNNY   35  20  55 N30G41    30.19R WCI  22
SIDNEY         PTSUNNY   36  20  52 N35G46    30.18R WCI  22
$$

NEZ057>060-069>072-079>082-141800-
SOUTHWEST NEBRASKA

CITY           SKY/WX    TMP DP  RH WIND       PRES   REMARKS
NORTH PLATTE   CLOUDY    39  29  67 NW24G32   30.13R WCI  28
IMPERIAL       PTSUNNY   42  24  49 N25G40    30.14R
LEXINGTON      CLOUDY    41  32  71 NW15      30.11S
MCCOOK         CLOUDY    41  27  57 NW14      30.13R
OGALLALA       CLOUDY    41  29  61 NW13      30.15R
$$

NEZ005>010-023>029-035>040-094-141800-
NORTH CENTRAL NEBRASKA

CITY           SKY/WX    TMP DP  RH WIND       PRES   REMARKS
VALENTINE      CLOUDY    35  31  85 NW17G29   30.11R WCI  25
AINSWORTH      LGT SNOW  33  33 100 NW16G25   30.09R WCI  22
BROKEN BOW     LGT RAIN  37  34  89 NW16      30.09R WCI  28
O`NEILL        LGT SNOW  33  33 100 CALM      30.07R
ORD            LGT RAIN  36  34  92 NW10      30.07R WCI  28
THEDFORD       LGT SNOW  33  32  96 NW23G29   30.12R VSB 3/4 WCI  21
$$

NEZ041-046>049-061>064-073>077-083>087-141800-
SOUTH CENTRAL NEBRASKA

CITY           SKY/WX    TMP DP  RH WIND       PRES   REMARKS
GRAND ISLAND   LGT RAIN  37  36  96 W9        30.09R WCI  30
AURORA         LGT SNOW  35  32  90 NW10      30.09R WCI  27
HASTINGS       MIX PCPN  37  33  85 NW15      30.10R WCI  28
HEBRON         CLOUDY    42  28  56 W9        30.10S
HOLDREGE       CLOUDY    39  34  82 NW14G22   30.11R WCI  31
KEARNEY        LGT RAIN  38  35  89 NW14      30.10S WCI  30
YORK           CLOUDY    37  28  70 CALM      30.09R
$$

NEZ011>018-030>034-042>045-141800-
NORTHEAST NEBRASKA

CITY           SKY/WX    TMP DP  RH WIND       PRES   REMARKS
NORFOLK        CLOUDY    36  25  64 NW9       30.05R WCI  29
ALBION         MIX PCPN  35  33  92 NW6       30.08R WCI  30
BLAIR          PTSUNNY   39  28  64 W9        30.06F WCI  33
COLUMBUS       CLOUDY    36  26  67 W6        30.09R WCI  31
FREMONT        CLOUDY    39  26  60 NW9       30.07S WCI  33
TEKAMAH        CLOUDY    39  26  59 NW10      30.08R WCI  32
WAYNE          MOSUNNY   37  26  65 NW7       30.06S WCI  31
$$

NEZ050>053-065>068-078-088>093-141800-
SOUTHEAST NEBRASKA

CITY           SKY/WX    TMP DP  RH WIND       PRES   REMARKS
LINCOLN        MOSUNNY   42  26  53 NW10      30.10S
OMAHA EPPLEY   CLOUDY    40  24  53 W5        30.08S
BEATRICE       SUNNY     40  27  59 NW10      30.10R WCI  34
FALLS CITY     CLOUDY    39  25  57 NW3       30.10S
NEBRASKA CITY  CLOUDY    39  25  58 NW5       30.09R
PLATTSMOUTH    CLOUDY    38  26  60 NW6       30.08R WCI  34
$$

NEZ044-045-051>053-067-141800-
OMAHA AREA

CITY           SKY/WX    TMP DP  RH WIND       PRES   REMARKS
OMAHA EPPLEY   CLOUDY    40  24  53 W5        30.08S
BLAIR          PTSUNNY   39  28  64 W9        30.06F WCI  33
FREMONT        CLOUDY    39  26  60 NW9       30.07S WCI  33
MILLARD        CLOUDY    40  28  60 NW9       30.08S WCI  35
OFFUTT AFB     CLOUDY    38  26  61 CALM      30.08R
PLATTSMOUTH    CLOUDY    38  26  60 NW6       30.08R WCI  34
WAHOO          FAIR      40  25  54 W10       30.08S WCI  34
$$



USA.gov is the U.S. government's official web portal to all federal, state and local government web resources and services.